START_TIME,STEP,MOV.,H8,t_acc.,H43,t_acc.,M25,t_acc.,H9,t_acc.
1979-07-28 06:00:28.700 ,0,1,0.,12.0,0.,12.0,0.,12.0,0.,12.0
1979-07-28 06:00:40.700 ,0,1,0.,12.0,0.,12.0,0.,12.0,0.,12.0
1979-07-28 06:00:52.700 ,4,1,0.,12.0,0.,12.0,0.,12.0,0.,12.0
1979-07-28 06:01:04.700 ,4,1,0.,12.0,0.,12.0,0.,12.0,0.,12.0
1979-07-28 06:01:16.700 ,7,1,0.,12.0,0.,12.0,0.,12.0,0.,12.0
1979-07-28 06:01:28.700 ,7,1,0.,12.0,0.,12.0,0.,12.0,0.,12.0
1979-07-28 06:01:40.700 ,3,1,0.,12.0,0.,12.0,0.,12.0,0.,12.0
1979-07-28 06:01:52.700 ,3,1,0.,12.0,0.,12.0,0.,12.0,0.,12.0
1979-07-28 06:02:04.700 ,0,1,0.,12.0,0.,12.0,0.,12.0,0.,12.0
1979-07-28 06:02:16.700 ,0,1,0.,12.0,0.,12.0,0.,12.0,0.,12.0
1979-07-28 06:02:28.700 ,4,1,0.,12.0,0.,12.0,0.,12.0,0.,12.0
1979-07-28 06:02:40.700 ,4,1,0.,12.0,0.,12.0,0.,12.0,0.,12.0
1979-07-28 06:02:52.700 ,7,1,0.,12.0,0.,12.0,0.,12.0,0.,12.0
1979-07-28 06:03:04.700 ,7,1,0.,12.0,0.,12.0,0.,12.0,0.,12.0
1979-07-28 06:03:16.700 ,3,1,0.,12.0,0.,12.0,0.,12.0,0.,12.0
1979-07-28 06:03:28.700 ,3,1,0.,12.0,0.,12.0,0.,12.0,0.,12.0
1979-07-28 06:03:40.700 ,0,1,0.,12.0,0.,12.0,0.,12.0,0.,12.0
1979-07-28 06:03:52.700 ,0,1,0.,12.0,0.,12.0,0.,12.0,0.,12.0
1979-07-28 06:04:04.700 ,4,1,0.,12.0,0.,12.0,0.,12.0,0.,12.0
1979-07-28 06:04:16.700 ,4,1,0.,12.0,0.,12.0,0.,12.0,0.,12.0
1979-07-28 06:04:28.700 ,7,1,0.,12.0,0.,12.0,0.,12.0,0.,12.0
1979-07-28 06:04:40.700 ,7,1,0.,12.0,0.,12.0,0.,12.0,0.,12.0
1979-07-28 06:04:52.700 ,3,1,0.,12.0,0.,12.0,0.,12.0,0.,12.0
1979-07-28 06:05:04.700 ,3,1,0.,12.0,0.,12.0,0.,12.0,0.,12.0
1979-07-28 06:05:16.700 ,0,1,0.,12.0,0.,12.0,0.,12.0,0.,12.0
1979-07-28 06:05:28.700 ,0,1,0.,12.0,0.,12.0,0.,12.0,0.,12.0
1979-07-28 06:05:40.700 ,0,0,0.,12.0,0.,12.0,0.,12.0,0.,12.0
1979-07-28 06:05:52.700 ,0,0,0.,12.0,0.,12.0,0.,12.0,0.,12.0
1979-07-28 06:06:04.700 ,0,0,0.,12.0,0.,12.0,0.,12.0,0.,12.0
1979-07-28 06:06:16.700 ,0,0,0.,12.0,0.,12.0,0.,12.0,0.,12.0
1979-07-28 06:06:28.700 ,5,0,0.,12.0,0.,12.0,0.,12.0,0.,12.0
1979-07-28 06:06:40.700 ,5,0,0.,12.0,0.,12.0,0.,12.0,0.,12.0
1979-07-28 06:06:52.700 ,5,0,0.,12.0,0.,12.0,0.,12.0,0.,12.0
1979-07-28 06:07:04.700 ,5,0,0.,12.0,0.,12.0,0.,12.0,0.,12.0
1979-07-28 06:07:16.700 ,4,0,0.,12.0,0.,12.0,0.,12.0,0.,12.0
1979-07-28 06:07:28.700 ,4,0,0.,12.0,0.,12.0,0.,12.0,0.,12.0
1979-07-28 06:07:40.700 ,4,0,0.,12.0,0.,12.0,0.,12.0,0.,12.0
1979-07-28 06:07:52.700 ,4,0,0.,12.0,0.,12.0,0.,12.0,0.,12.0
1979-07-28 06:08:04.700 ,3,0,0.,12.0,0.,12.0,0.,12.0,0.,12.0
1979-07-28 06:08:16.700 ,3,0,0.,12.0,0.,12.0,0.,12.0,0.,12.0
1979-07-28 06:08:28.700 ,3,0,0.,12.0,0.,12.0,0.,12.0,0.,12.0
1979-07-28 06:08:40.700 ,3,0,0.,12.0,0.,12.0,0.,12.0,0.,12.0
1979-07-28 06:08:52.700 ,2,0,0.,12.0,0.,12.0,0.,12.0,0.,12.0
1979-07-28 06:09:04.700 ,2,0,0.,12.0,0.,12.0,0.,12.0,0.,12.0
1979-07-28 06:09:16.700 ,2,0,0.,12.0,0.,12.0,0.,12.0,0.,12.0
1979-07-28 06:09:28.700 ,2,0,0.,12.0,0.,12.0,0.,12.0,0.,12.0
1979-07-28 06:09:40.700 ,1,0,0.,12.0,0.,12.0,0.,12.0,0.,12.0
1979-07-28 06:09:52.700 ,1,0,0.,12.0,0.,12.0,0.,12.0,0.,12.0
1979-07-28 06:10:04.700 ,1,0,0.,12.0,0.,12.0,0.,12.0,0.,12.0
1979-07-28 06:10:16.700 ,1,0,0.,12.0,0.,12.0,0.,12.0,0.,12.0
1979-07-28 06:10:28.700 ,0,0,0.,12.0,0.,12.0,0.,12.0,0.,12.0
1979-07-28 06:10:40.700 ,0,0,0.,12.0,0.,12.0,0.,12.0,0.,12.0
1979-07-28 06:10:52.700 ,0,0,0.,12.0,0.,12.0,0.,12.0,0.,12.0
1979-07-28 06:11:04.700 ,0,0,0.,12.0,0.,12.0,0.,12.0,0.,12.0
1979-07-28 06:11:16.700 ,0,0,0.,12.0,0.,12.0,0.,12.0,0.,12.0
1979-07-28 06:11:28.700 ,0,0,0.,12.0,0.,12.0,0.,12.0,0.,12.0
1979-07-28 06:11:40.700 ,0,0,0.,12.0,0.,12.0,0.,12.0,0.,12.0
1979-07-28 06:11:52.700 ,0,0,0.,12.0,0.,12.0,0.,12.0,0.,12.0
1979-07-28 06:12:04.700 ,1,0,0.,12.0,0.,12.0,0.,12.0,0.,12.0
1979-07-28 06:12:16.700 ,1,0,0.,12.0,0.,12.0,0.,12.0,0.,12.0
1979-07-28 06:12:28.700 ,1,0,0.,12.0,0.,12.0,0.,12.0,0.,12.0
1979-07-28 06:12:40.700 ,1,0,0.,12.0,0.,12.0,0.,12.0,0.,12.0
1979-07-28 06:12:52.700 ,2,0,0.,12.0,0.,12.0,0.,12.0,0.,12.0
1979-07-28 06:13:04.700 ,2,0,0.,12.0,0.,12.0,0.,12.0,0.,12.0
1979-07-28 06:13:16.700 ,2,0,0.,12.0,0.,12.0,0.,12.0,0.,12.0
1979-07-28 06:13:28.700 ,2,0,0.,12.0,0.,12.0,0.,12.0,0.,12.0
1979-07-28 06:13:40.700 ,3,0,0.,12.0,0.,12.0,0.,12.0,0.,12.0
1979-07-28 06:13:52.700 ,3,0,0.,12.0,0.,12.0,0.,12.0,0.,12.0
1979-07-28 06:14:04.700 ,3,0,0.,12.0,0.,12.0,0.,12.0,0.,12.0
1979-07-28 06:14:16.700 ,3,0,0.,12.0,0.,12.0,0.,12.0,0.,12.0
1979-07-28 06:14:28.700 ,4,0,0.,12.0,0.,12.0,0.,12.0,0.,12.0
1979-07-28 06:14:40.700 ,4,0,0.,12.0,0.,12.0,0.,12.0,0.,12.0
1979-07-28 06:14:52.700 ,4,0,0.,12.0,0.,12.0,0.,12.0,0.,12.0
1979-07-28 06:15:04.700 ,4,0,0.,12.0,0.,12.0,0.,12.0,0.,12.0
1979-07-28 06:15:16.700 ,5,0,0.,12.0,0.,12.0,0.,12.0,0.,12.0
1979-07-28 06:15:28.700 ,5,0,0.,12.0,0.,12.0,0.,12.0,0.,12.0
1979-07-28 06:15:40.700 ,5,0,0.,12.0,0.,12.0,0.,12.0,0.,12.0
1979-07-28 06:15:52.700 ,5,0,0.,12.0,0.,12.0,0.,12.0,0.,12.0
1979-07-28 06:16:04.700 ,6,0,0.,12.0,0.,12.0,0.,12.0,0.,12.0
1979-07-28 06:16:16.700 ,6,0,0.,12.0,0.,12.0,0.,12.0,0.,12.0
1979-07-28 06:16:28.700 ,6,0,0.,12.0,0.,12.0,0.,12.0,0.,12.0
1979-07-28 06:16:40.700 ,6,0,0.,12.0,0.,12.0,0.,12.0,0.,12.0
1979-07-28 06:16:52.700 ,7,0,0.,12.0,0.,12.0,0.,12.0,0.,12.0
1979-07-28 06:17:04.700 ,7,0,0.,12.0,0.,12.0,0.,12.0,0.,12.0
1979-07-28 06:17:16.700 ,7,0,0.,12.0,0.,12.0,0.,12.0,0.,12.0
1979-07-28 06:17:28.700 ,7,0,0.,12.0,0.,12.0,0.,12.0,0.,12.0
1979-07-28 06:17:40.700 ,7,0,0.,12.0,0.,12.0,0.,12.0,0.,12.0
1979-07-28 06:17:52.700 ,7,0,0.,12.0,0.,12.0,0.,12.0,0.,12.0
1979-07-28 06:18:04.700 ,7,0,0.,12.0,0.,12.0,0.,12.0,0.,12.0
1979-07-28 06:18:16.700 ,7,0,0.,12.0,0.,12.0,0.,12.0,0.,12.0
1979-07-28 06:18:28.700 ,6,0,0.,12.0,0.,12.0,0.,12.0,0.,12.0
1979-07-28 06:18:40.700 ,6,0,0.,12.0,0.,12.0,0.,12.0,0.,12.0
1979-07-28 06:18:52.700 ,6,0,0.,12.0,0.,12.0,0.,12.0,0.,12.0
1979-07-28 06:19:04.700 ,6,0,0.,12.0,0.,12.0,0.,12.0,0.,12.0
1979-07-28 06:19:16.700 ,5,0,0.,12.0,0.,12.0,0.,12.0,0.,12.0
1979-07-28 06:19:28.700 ,5,0,0.,12.0,0.,12.0,0.,12.0,0.,12.0
1979-07-28 06:19:40.700 ,5,0,0.,12.0,0.,12.0,0.,12.0,0.,12.0
1979-07-28 06:19:52.700 ,5,0,0.,12.0,0.,12.0,0.,12.0,0.,12.0
1979-07-28 06:20:04.700 ,4,0,0.,12.0,0.,12.0,0.,12.0,0.,12.0
1979-07-28 06:20:16.700 ,4,0,0.,12.0,0.,12.0,0.,12.0,0.,12.0
1979-07-28 06:20:28.700 ,4,0,0.,12.0,0.,12.0,0.,12.0,0.,12.0
1979-07-28 06:20:40.700 ,4,0,0.,12.0,0.,12.0,0.,12.0,0.,12.0
1979-07-28 06:20:52.700 ,3,0,0.,12.0,0.,12.0,0.,12.0,0.,12.0
1979-07-28 06:21:04.700 ,3,0,0.,12.0,0.,12.0,0.,12.0,0.,12.0
1979-07-28 06:21:16.700 ,3,0,0.,12.0,0.,12.0,0.,12.0,0.,12.0
1979-07-28 06:21:28.700 ,3,0,0.,12.0,0.,12.0,0.,12.0,0.,12.0
1979-07-28 06:21:40.700 ,2,0,0.,12.0,0.,12.0,0.,12.0,0.,12.0
1979-07-28 06:21:52.700 ,2,0,0.,12.0,0.,12.0,0.,12.0,0.,12.0
1979-07-28 06:22:04.700 ,2,0,0.,12.0,0.,12.0,0.,12.0,0.,12.0
1979-07-28 06:22:16.700 ,2,0,0.,12.0,0.,12.0,0.,12.0,0.,12.0
1979-07-28 06:22:28.700 ,1,0,0.,12.0,0.,12.0,0.,12.0,0.,12.0
1979-07-28 06:22:40.700 ,1,0,0.,12.0,0.,12.0,0.,12.0,0.,12.0
1979-07-28 06:22:52.700 ,1,0,0.,12.0,0.,12.0,0.,12.0,0.,12.0
1979-07-28 06:23:04.700 ,1,0,0.,12.0,0.,12.0,0.,12.0,0.,12.0
1979-07-28 06:23:16.700 ,0,0,0.,12.0,0.,12.0,0.,12.0,0.,12.0
1979-07-28 06:23:28.700 ,0,0,0.,12.0,0.,12.0,0.,12.0,0.,12.0
1979-07-28 06:23:40.700 ,0,0,0.,12.0,0.,12.0,0.,12.0,0.,12.0
1979-07-28 06:23:52.700 ,0,0,0.,12.0,0.,12.0,0.,12.0,0.,12.0
1979-07-28 06:24:04.700 ,0,0,0.,12.0,0.,12.0,0.,12.0,0.,12.0
1979-07-28 06:24:16.700 ,0,0,0.,12.0,0.,12.0,0.,12.0,0.,12.0
1979-07-28 06:24:28.700 ,0,0,0.,12.0,0.,12.0,0.,12.0,0.,12.0
1979-07-28 06:24:40.700 ,0,0,0.,12.0,0.,12.0,0.,12.0,0.,12.0
1979-07-28 06:24:52.700 ,1,0,0.,12.0,0.,12.0,0.,12.0,0.,12.0
1979-07-28 06:25:04.700 ,1,0,0.,12.0,0.,12.0,0.,12.0,0.,12.0
1979-07-28 06:25:16.700 ,1,0,0.,12.0,0.,12.0,0.,12.0,0.,12.0
1979-07-28 06:25:28.700 ,1,0,0.,12.0,0.,12.0,0.,12.0,0.,12.0
1979-07-28 06:25:40.700 ,2,0,0.,12.0,0.,12.0,0.,12.0,0.,12.0
1979-07-28 06:25:52.700 ,2,0,0.,12.0,0.,12.0,0.,12.0,0.,12.0
1979-07-28 06:26:04.700 ,2,0,0.,12.0,0.,12.0,0.,12.0,0.,12.0
1979-07-28 06:26:16.700 ,2,0,0.,12.0,0.,12.0,0.,12.0,0.,12.0
1979-07-28 06:26:28.700 ,3,0,0.,12.0,0.,12.0,0.,12.0,0.,12.0
1979-07-28 06:26:40.700 ,3,0,0.,12.0,0.,12.0,0.,12.0,0.,12.0
1979-07-28 06:26:52.700 ,3,0,0.,12.0,0.,12.0,0.,12.0,0.,12.0
1979-07-28 06:27:04.700 ,3,0,0.,12.0,0.,12.0,0.,12.0,0.,12.0
1979-07-28 06:27:16.700 ,4,0,0.,12.0,0.,12.0,0.,12.0,0.,12.0
1979-07-28 06:27:28.700 ,4,0,0.,12.0,0.,12.0,0.,12.0,0.,12.0
1979-07-28 06:27:40.700 ,4,0,0.,12.0,0.,12.0,0.,12.0,0.,12.0
1979-07-28 06:27:52.700 ,4,0,0.,12.0,0.,12.0,0.,12.0,0.,12.0
1979-07-28 06:28:04.700 ,5,0,0.,12.0,0.,12.0,0.,12.0,0.,12.0
1979-07-28 06:28:16.700 ,5,0,0.,12.0,0.,12.0,0.,12.0,0.,12.0
1979-07-28 06:28:28.700 ,5,0,0.,12.0,0.,12.0,0.,12.0,0.,12.0
1979-07-28 06:28:40.700 ,5,0,0.,12.0,0.,12.0,0.,12.0,0.,12.0
1979-07-28 06:28:52.700 ,6,0,0.,12.0,0.,12.0,0.,12.0,0.,12.0
1979-07-28 06:29:04.700 ,6,0,0.,12.0,0.,12.0,0.,12.0,0.,12.0
1979-07-28 06:29:16.700 ,6,0,0.,12.0,0.,12.0,0.,12.0,0.,12.0
1979-07-28 06:29:28.700 ,6,0,0.,12.0,0.,12.0,0.,12.0,0.,12.0
1979-07-28 06:29:40.700 ,7,0,0.,12.0,0.,12.0,0.,12.0,0.,12.0
1979-07-28 06:29:52.700 ,7,0,0.,12.0,0.,12.0,0.,12.0,0.,12.0
1979-07-28 06:30:04.700 ,7,0,0.,12.0,0.,12.0,0.,12.0,0.,12.0
1979-07-28 06:30:16.700 ,7,0,0.,12.0,0.,12.0,0.,12.0,0.,12.0
1979-07-28 06:30:28.700 ,7,0,0.,12.0,0.,12.0,0.,12.0,0.,12.0
1979-07-28 06:30:40.700 ,7,0,0.,12.0,0.,12.0,0.,12.0,0.,12.0
1979-07-28 06:30:52.700 ,7,0,0.,12.0,0.,12.0,0.,12.0,0.,12.0
1979-07-28 06:31:04.700 ,7,0,0.,12.0,0.,12.0,0.,12.0,0.,12.0
1979-07-28 06:31:16.700 ,6,0,0.,12.0,0.,12.0,0.,12.0,0.,12.0
1979-07-28 06:31:28.700 ,6,0,0.,12.0,0.,12.0,0.,12.0,0.,12.0
1979-07-28 06:31:40.700 ,6,0,0.,12.0,0.,12.0,0.,12.0,0.,12.0
1979-07-28 06:31:52.700 ,6,0,0.,12.0,0.,12.0,0.,12.0,0.,12.0
1979-07-28 06:32:04.700 ,5,0,0.,12.0,0.,12.0,0.,12.0,0.,12.0
1979-07-28 06:32:16.700 ,5,0,0.,12.0,0.,12.0,0.,12.0,0.,12.0
1979-07-28 06:32:28.700 ,5,0,0.,12.0,0.,12.0,0.,12.0,0.,12.0
1979-07-28 06:32:40.700 ,5,0,0.,12.0,0.,12.0,0.,12.0,0.,12.0
1979-07-28 06:32:52.700 ,4,0,0.,12.0,0.,12.0,0.,12.0,0.,12.0
1979-07-28 06:33:04.700 ,4,0,0.,12.0,0.,12.0,0.,12.0,0.,12.0
1979-07-28 06:33:16.700 ,4,0,0.,12.0,0.,12.0,0.,12.0,0.,12.0
1979-07-28 06:33:28.700 ,4,0,0.,12.0,0.,12.0,0.,12.0,0.,12.0
1979-07-28 06:33:40.700 ,3,0,0.,12.0,0.,12.0,0.,12.0,0.,12.0
1979-07-28 06:33:52.700 ,3,0,0.,12.0,0.,12.0,0.,12.0,0.,12.0
1979-07-28 06:34:04.700 ,3,0,0.,12.0,0.,12.0,0.,12.0,0.,12.0
1979-07-28 06:34:16.700 ,3,0,0.,12.0,0.,12.0,0.,12.0,0.,12.0
1979-07-28 06:34:28.700 ,2,0,0.,12.0,0.,12.0,0.,12.0,0.,12.0
1979-07-28 06:34:40.700 ,2,0,0.,12.0,0.,12.0,0.,12.0,0.,12.0
1979-07-28 06:34:52.700 ,2,0,0.,12.0,0.,12.0,0.,12.0,0.,12.0
1979-07-28 06:35:04.700 ,2,0,0.,12.0,0.,12.0,0.,12.0,0.,12.0
1979-07-28 06:35:16.700 ,1,0,0.,12.0,0.,12.0,0.,12.0,0.,12.0
1979-07-28 06:35:28.700 ,1,0,0.,12.0,0.,12.0,0.,12.0,0.,12.0
1979-07-28 06:35:40.700 ,1,0,0.,12.0,0.,12.0,0.,12.0,0.,12.0
1979-07-28 06:35:52.700 ,1,0,0.,12.0,0.,12.0,0.,12.0,0.,12.0
1979-07-28 06:36:04.700 ,0,0,0.,12.0,0.,12.0,0.,12.0,0.,12.0
1979-07-28 06:36:16.700 ,0,0,0.,12.0,0.,12.0,0.,12.0,0.,12.0
1979-07-28 06:36:28.700 ,0,0,0.,12.0,0.,12.0,0.,12.0,0.,12.0
1979-07-28 06:36:40.700 ,0,0,0.,12.0,0.,12.0,0.,12.0,0.,12.0
1979-07-28 06:36:52.700 ,0,0,,0,,0,,0,,0
1979-07-28 06:37:04.700 ,0,0,,0,,0,,0,,0
1979-07-28 06:37:16.700 ,0,0,,0,,0,,0,,0
1979-07-28 06:37:28.700 ,0,0,,0,,0,,0,,0
1979-07-28 06:37:16.700 ,0,0,0.,12.0,0.,12.0,0.,12.0,0.,12.0
1979-07-28 06:37:28.700 ,0,0,0.,12.0,0.,12.0,0.,12.0,0.,12.0
1979-07-28 06:37:40.700 ,1,0,0.,12.0,0.,12.0,0.,12.0,0.,12.0
1979-07-28 06:37:52.700 ,1,0,0.,12.0,0.,12.0,0.,12.0,0.,12.0
1979-07-28 06:38:04.700 ,1,0,0.,12.0,0.,12.0,0.,12.0,0.,12.0
1979-07-28 06:38:16.700 ,1,0,0.,12.0,0.,12.0,0.,12.0,0.,12.0
1979-07-28 06:38:28.700 ,2,0,0.,12.0,0.,12.0,0.,12.0,0.,12.0
1979-07-28 06:38:40.700 ,2,0,0.,12.0,0.,12.0,0.,12.0,0.,12.0
1979-07-28 06:38:52.700 ,2,0,0.,12.0,0.,12.0,0.,12.0,0.,12.0
1979-07-28 06:39:04.700 ,2,0,0.,12.0,0.,12.0,0.,12.0,0.,12.0
1979-07-28 06:39:16.700 ,3,0,0.,12.0,0.,12.0,0.,12.0,0.,12.0
1979-07-28 06:39:28.700 ,3,0,0.,12.0,0.,12.0,0.,12.0,0.,12.0
1979-07-28 06:39:40.700 ,3,0,0.,12.0,0.,12.0,0.,12.0,0.,12.0
1979-07-28 06:39:52.700 ,3,0,0.,12.0,0.,12.0,0.,12.0,0.,12.0
1979-07-28 06:40:04.700 ,4,0,0.,12.0,0.,12.0,0.,12.0,0.,12.0
1979-07-28 06:40:16.700 ,4,0,0.,12.0,0.,12.0,0.,12.0,0.,12.0
1979-07-28 06:40:28.700 ,4,0,0.,12.0,0.,12.0,0.,12.0,0.,12.0
1979-07-28 06:40:40.700 ,4,0,0.,12.0,0.,12.0,0.,12.0,0.,12.0
1979-07-28 06:40:52.700 ,5,0,0.,12.0,0.,12.0,0.,12.0,0.,12.0
1979-07-28 06:41:04.700 ,5,0,0.,12.0,0.,12.0,0.,12.0,0.,12.0
1979-07-28 06:41:16.700 ,5,0,0.,12.0,0.,12.0,0.,12.0,0.,12.0
1979-07-28 06:41:28.700 ,5,0,0.,12.0,0.,12.0,0.,12.0,0.,12.0
1979-07-28 06:41:40.700 ,6,0,0.,12.0,0.,12.0,0.,12.0,0.,12.0
1979-07-28 06:41:52.700 ,6,0,0.,12.0,0.,12.0,0.,12.0,0.,12.0
1979-07-28 06:42:04.700 ,6,0,0.,12.0,0.,12.0,0.,12.0,0.,12.0
1979-07-28 06:42:16.700 ,6,0,0.,12.0,0.,12.0,0.,12.0,0.,12.0
1979-07-28 06:42:28.700 ,7,0,0.,12.0,0.,12.0,0.,12.0,0.,12.0
1979-07-28 06:42:40.700 ,7,0,0.,12.0,0.,12.0,0.,12.0,0.,12.0
1979-07-28 06:42:52.700 ,7,0,0.,12.0,0.,12.0,0.,12.0,0.,12.0
1979-07-28 06:43:04.700 ,7,0,0.,12.0,0.,12.0,0.,12.0,0.,12.0
1979-07-28 06:43:16.700 ,3,1,0.,12.0,0.,12.0,0.,12.0,0.,12.0
1979-07-28 06:43:28.700 ,3,1,0.,12.0,0.,12.0,0.,12.0,0.,12.0
1979-07-28 06:43:40.700 ,0,1,0.,12.0,0.,12.0,0.,12.0,0.,12.0
1979-07-28 06:43:52.700 ,0,1,0.,12.0,0.,12.0,0.,12.0,0.,12.0
1979-07-28 06:44:04.700 ,4,1,0.,12.0,0.,12.0,0.,12.0,0.,12.0
1979-07-28 06:44:16.700 ,4,1,0.,12.0,0.,12.0,0.,12.0,0.,12.0
1979-07-28 06:44:28.700 ,7,1,0.,12.0,0.,12.0,0.,12.0,0.,12.0
1979-07-28 06:44:40.700 ,7,1,0.,12.0,0.,12.0,0.,12.0,0.,12.0
1979-07-28 06:44:52.700 ,3,1,0.,12.0,0.,12.0,0.,12.0,0.,12.0
1979-07-28 06:45:04.700 ,3,1,0.,12.0,0.,12.0,0.,12.0,0.,12.0
1979-07-28 06:45:16.700 ,0,1,0.,12.0,0.,12.0,0.,12.0,0.,12.0
1979-07-28 06:45:28.700 ,0,1,0.,12.0,0.,12.0,0.,12.0,0.,12.0
1979-07-28 06:45:40.700 ,4,1,0.,12.0,0.,12.0,0.,12.0,0.,12.0
1979-07-28 06:45:52.700 ,4,1,0.,12.0,0.,12.0,0.,12.0,0.,12.0
1979-07-28 06:46:04.700 ,7,1,0.,12.0,0.,12.0,0.,12.0,0.,12.0
1979-07-28 06:46:16.700 ,7,1,0.,12.0,0.,12.0,0.,12.0,0.,12.0
1979-07-28 06:46:28.700 ,3,1,0.,12.0,0.,12.0,0.,12.0,0.,12.0
1979-07-28 06:46:40.700 ,3,1,0.,12.0,0.,12.0,0.,12.0,0.,12.0
1979-07-28 06:46:52.700 ,0,1,0.,12.0,0.,12.0,0.,12.0,0.,12.0
1979-07-28 06:47:04.700 ,0,1,0.,12.0,0.,12.0,0.,12.0,0.,12.0
1979-07-28 06:47:16.700 ,4,1,0.,12.0,0.,12.0,0.,12.0,0.,12.0
1979-07-28 06:47:28.700 ,4,1,0.,12.0,0.,12.0,0.,12.0,0.,12.0
1979-07-28 06:47:40.700 ,7,1,0.,12.0,0.,12.0,0.,12.0,0.,12.0
1979-07-28 06:47:52.700 ,7,1,0.,12.0,0.,12.0,0.,12.0,0.,12.0
1979-07-28 06:48:04.700 ,3,1,0.,12.0,0.,12.0,0.,12.0,0.,12.0
1979-07-28 06:48:16.700 ,3,1,0.,12.0,0.,12.0,0.,12.0,0.,12.0
1979-07-28 06:48:28.700 ,0,1,0.,12.0,0.,12.0,0.,12.0,0.,12.0
1979-07-28 06:48:40.700 ,0,1,0.,12.0,0.,12.0,0.,12.0,0.,12.0
1979-07-28 06:48:52.700 ,4,1,0.,12.0,0.,12.0,0.,12.0,0.,12.0
1979-07-28 06:49:04.700 ,4,1,0.,12.0,0.,12.0,0.,12.0,0.,12.0
1979-07-28 06:49:16.700 ,7,1,0.,12.0,0.,12.0,0.,12.0,0.,12.0
1979-07-28 06:49:28.700 ,7,1,0.,12.0,0.,12.0,0.,12.0,0.,12.0
1979-07-28 06:49:40.700 ,3,1,0.,12.0,0.,12.0,0.,12.0,0.,12.0
1979-07-28 06:49:52.700 ,3,1,0.,12.0,0.,12.0,0.,12.0,0.,12.0
1979-07-28 06:50:04.700 ,0,1,0.,12.0,0.,12.0,0.,12.0,0.,12.0
1979-07-28 06:50:16.700 ,0,1,0.,12.0,0.,12.0,0.,12.0,0.,12.0
1979-07-28 06:50:28.700 ,4,1,0.,12.0,0.,12.0,0.,12.0,0.,12.0
1979-07-28 06:50:40.700 ,4,1,0.,12.0,0.,12.0,0.,12.0,0.,12.0
1979-07-28 06:50:52.700 ,7,1,0.,12.0,0.,12.0,0.,12.0,0.,12.0
1979-07-28 06:51:04.700 ,7,1,0.,12.0,0.,12.0,0.,12.0,0.,12.0
1979-07-28 06:51:16.700 ,3,1,0.,12.0,0.,12.0,0.,12.0,0.,12.0
1979-07-28 06:51:28.700 ,3,1,0.,12.0,0.,12.0,0.,12.0,0.,12.0
1979-07-28 06:51:40.700 ,0,1,0.,12.0,0.,12.0,0.,12.0,0.,12.0
1979-07-28 06:51:52.700 ,0,1,0.,12.0,0.,12.0,0.,12.0,0.,12.0
1979-07-28 06:52:04.700 ,4,1,0.,12.0,0.,12.0,0.,12.0,0.,12.0
1979-07-28 06:52:16.700 ,4,1,0.,12.0,0.,12.0,0.,12.0,0.,12.0
1979-07-28 06:52:28.700 ,7,1,0.,12.0,0.,12.0,0.,12.0,0.,12.0
1979-07-28 06:52:40.700 ,7,1,0.,12.0,0.,12.0,0.,12.0,0.,12.0
1979-07-28 06:52:52.700 ,3,1,0.,12.0,0.,12.0,0.,12.0,0.,12.0
1979-07-28 06:53:04.700 ,3,1,0.,12.0,0.,12.0,0.,12.0,0.,12.0
1979-07-28 06:53:16.700 ,0,1,0.,12.0,0.,12.0,0.,12.0,0.,12.0
1979-07-28 06:53:28.700 ,0,1,0.,12.0,0.,12.0,0.,12.0,0.,12.0
1979-07-28 06:53:40.700 ,0,0,0.,12.0,0.,12.0,0.,12.0,0.,12.0
1979-07-28 06:53:52.700 ,0,0,0.,12.0,0.,12.0,0.,12.0,0.,12.0
1979-07-28 06:54:04.700 ,0,0,0.,12.0,0.,12.0,0.,12.0,0.,12.0
1979-07-28 06:54:16.700 ,0,0,0.,12.0,0.,12.0,0.,12.0,0.,12.0
1979-07-28 06:54:28.700 ,5,0,0.,12.0,0.,12.0,0.,12.0,0.,12.0
1979-07-28 06:54:40.700 ,5,0,0.,12.0,0.,12.0,0.,12.0,0.,12.0
1979-07-28 06:54:52.700 ,5,0,0.,12.0,0.,12.0,0.,12.0,0.,12.0
1979-07-28 06:55:04.700 ,5,0,0.,12.0,0.,12.0,0.,12.0,0.,12.0
1979-07-28 06:55:16.700 ,4,0,0.,12.0,0.,12.0,0.,12.0,0.,12.0
1979-07-28 06:55:28.700 ,4,0,0.,12.0,1.,12.0,0.,12.0,0.,12.0
1979-07-28 06:55:40.700 ,4,0,0.,12.0,0.,12.0,0.,12.0,0.,12.0
1979-07-28 06:55:52.700 ,4,0,0.,12.0,0.,12.0,0.,12.0,0.,12.0
1979-07-28 06:56:04.700 ,3,0,0.,12.0,0.,12.0,0.,12.0,0.,12.0
1979-07-28 06:56:16.700 ,3,0,0.,12.0,0.,12.0,0.,12.0,0.,12.0
1979-07-28 06:56:28.700 ,3,0,0.,12.0,0.,12.0,0.,12.0,0.,12.0
1979-07-28 06:56:40.700 ,3,0,0.,12.0,0.,12.0,0.,12.0,0.,12.0
1979-07-28 06:56:52.700 ,2,0,0.,12.0,0.,12.0,0.,12.0,0.,12.0
1979-07-28 06:57:04.700 ,2,0,0.,12.0,0.,12.0,0.,12.0,0.,12.0
1979-07-28 06:57:16.700 ,2,0,0.,12.0,0.,12.0,0.,12.0,0.,12.0
1979-07-28 06:57:28.700 ,2,0,0.,12.0,0.,12.0,0.,12.0,0.,12.0
1979-07-28 06:57:40.700 ,1,0,0.,12.0,0.,12.0,0.,12.0,0.,12.0
1979-07-28 06:57:52.700 ,1,0,0.,12.0,0.,12.0,0.,12.0,0.,12.0
1979-07-28 06:58:04.700 ,1,0,0.,12.0,0.,12.0,0.,12.0,0.,12.0
1979-07-28 06:58:16.700 ,1,0,0.,12.0,0.,12.0,0.,12.0,0.,12.0
1979-07-28 06:58:28.700 ,0,0,0.,12.0,0.,12.0,0.,12.0,0.,12.0
1979-07-28 06:58:40.700 ,0,0,0.,12.0,0.,12.0,0.,12.0,0.,12.0
1979-07-28 06:58:52.700 ,0,0,0.,12.0,0.,12.0,0.,12.0,0.,12.0
1979-07-28 06:59:04.700 ,0,0,0.,12.0,0.,12.0,0.,12.0,0.,12.0
1979-07-28 06:59:16.700 ,0,0,0.,12.0,0.,12.0,0.,12.0,0.,12.0
1979-07-28 06:59:28.700 ,0,0,0.,12.0,0.,12.0,0.,12.0,0.,12.0
1979-07-28 06:59:40.700 ,0,0,0.,12.0,0.,12.0,0.,12.0,0.,12.0
1979-07-28 06:59:52.700 ,0,0,0.,12.0,0.,12.0,0.,12.0,0.,12.0
1979-07-28 07:00:04.700 ,1,0,0.,12.0,0.,12.0,0.,12.0,0.,12.0
1979-07-28 07:00:16.700 ,1,0,0.,12.0,0.,12.0,0.,12.0,0.,12.0
1979-07-28 07:00:28.700 ,1,0,0.,12.0,0.,12.0,0.,12.0,0.,12.0
1979-07-28 07:00:40.700 ,1,0,0.,12.0,0.,12.0,0.,12.0,0.,12.0
1979-07-28 07:00:52.700 ,2,0,0.,12.0,0.,12.0,0.,12.0,0.,12.0
1979-07-28 07:01:04.700 ,2,0,0.,12.0,0.,12.0,0.,12.0,0.,12.0
1979-07-28 07:01:16.700 ,2,0,0.,12.0,0.,12.0,0.,12.0,0.,12.0
1979-07-28 07:01:28.700 ,2,0,0.,12.0,0.,12.0,0.,12.0,0.,12.0
1979-07-28 07:01:40.700 ,3,0,0.,12.0,0.,12.0,0.,12.0,0.,12.0
1979-07-28 07:01:52.700 ,3,0,0.,12.0,0.,12.0,0.,12.0,0.,12.0
1979-07-28 07:02:04.700 ,3,0,0.,12.0,0.,12.0,0.,12.0,0.,12.0
1979-07-28 07:02:16.700 ,3,0,0.,12.0,0.,12.0,0.,12.0,0.,12.0
1979-07-28 07:02:28.700 ,4,0,0.,12.0,0.,12.0,0.,12.0,0.,12.0
1979-07-28 07:02:40.700 ,4,0,0.,12.0,0.,12.0,0.,12.0,0.,12.0
1979-07-28 07:02:52.700 ,4,0,0.,12.0,0.,12.0,0.,12.0,0.,12.0
1979-07-28 07:03:04.700 ,4,0,0.,12.0,0.,12.0,0.,12.0,0.,12.0
1979-07-28 07:03:16.700 ,5,0,0.,12.0,0.,12.0,0.,12.0,0.,12.0
1979-07-28 07:03:28.700 ,5,0,0.,12.0,0.,12.0,0.,12.0,0.,12.0
1979-07-28 07:03:40.700 ,5,0,0.,12.0,0.,12.0,0.,12.0,0.,12.0
1979-07-28 07:03:52.700 ,5,0,0.,12.0,0.,12.0,0.,12.0,0.,12.0
1979-07-28 07:04:04.700 ,6,0,0.,12.0,0.,12.0,0.,12.0,0.,12.0
1979-07-28 07:04:16.700 ,6,0,0.,12.0,0.,12.0,0.,12.0,0.,12.0
1979-07-28 07:04:28.700 ,6,0,0.,12.0,0.,12.0,0.,12.0,0.,12.0
1979-07-28 07:04:40.700 ,6,0,0.,12.0,0.,12.0,0.,12.0,0.,12.0
1979-07-28 07:04:52.700 ,7,0,0.,12.0,0.,12.0,0.,12.0,0.,12.0
1979-07-28 07:05:04.700 ,7,0,0.,12.0,0.,12.0,0.,12.0,0.,12.0
1979-07-28 07:05:16.700 ,7,0,0.,12.0,0.,12.0,0.,12.0,0.,12.0
1979-07-28 07:05:28.700 ,7,0,0.,12.0,0.,12.0,0.,12.0,0.,12.0
1979-07-28 07:05:40.700 ,7,0,0.,12.0,0.,12.0,0.,12.0,0.,12.0
1979-07-28 07:05:52.700 ,7,0,0.,12.0,0.,12.0,0.,12.0,0.,12.0
1979-07-28 07:06:04.700 ,7,0,0.,12.0,0.,12.0,0.,12.0,0.,12.0
1979-07-28 07:06:16.700 ,7,0,0.,12.0,0.,12.0,0.,12.0,0.,12.0
1979-07-28 07:06:28.700 ,6,0,0.,12.0,0.,12.0,0.,12.0,0.,12.0
1979-07-28 07:06:40.700 ,6,0,0.,12.0,0.,12.0,0.,12.0,0.,12.0
1979-07-28 07:06:52.700 ,6,0,0.,12.0,0.,12.0,0.,12.0,0.,12.0
1979-07-28 07:07:04.700 ,6,0,0.,12.0,0.,12.0,0.,12.0,0.,12.0
1979-07-28 07:07:16.700 ,5,0,0.,12.0,0.,12.0,0.,12.0,0.,12.0
1979-07-28 07:07:28.700 ,5,0,0.,12.0,0.,12.0,0.,12.0,0.,12.0
1979-07-28 07:07:40.700 ,5,0,0.,12.0,0.,12.0,0.,12.0,0.,12.0
1979-07-28 07:07:52.700 ,5,0,0.,12.0,0.,12.0,0.,12.0,0.,12.0
1979-07-28 07:08:04.700 ,4,0,0.,12.0,0.,12.0,0.,12.0,0.,12.0
1979-07-28 07:08:16.700 ,4,0,0.,12.0,0.,12.0,0.,12.0,0.,12.0
1979-07-28 07:08:28.700 ,4,0,0.,12.0,0.,12.0,0.,12.0,0.,12.0
1979-07-28 07:08:40.700 ,4,0,0.,12.0,0.,12.0,0.,12.0,0.,12.0
1979-07-28 07:08:52.700 ,3,0,0.,12.0,0.,12.0,0.,12.0,0.,12.0
1979-07-28 07:09:04.700 ,3,0,0.,12.0,0.,12.0,0.,12.0,0.,12.0
1979-07-28 07:09:16.700 ,3,0,0.,12.0,0.,12.0,0.,12.0,0.,12.0
1979-07-28 07:09:28.700 ,3,0,0.,12.0,0.,12.0,0.,12.0,0.,12.0
1979-07-28 07:09:40.700 ,2,0,0.,12.0,0.,12.0,0.,12.0,0.,12.0
1979-07-28 07:09:52.700 ,2,0,0.,12.0,0.,12.0,0.,12.0,0.,12.0
1979-07-28 07:10:04.700 ,2,0,0.,12.0,0.,12.0,0.,12.0,0.,12.0
1979-07-28 07:10:16.700 ,2,0,0.,12.0,0.,12.0,0.,12.0,0.,12.0
1979-07-28 07:10:28.700 ,1,0,0.,12.0,0.,12.0,0.,12.0,0.,12.0
1979-07-28 07:10:40.700 ,1,0,0.,12.0,0.,12.0,0.,12.0,0.,12.0
1979-07-28 07:10:52.700 ,1,0,0.,12.0,0.,12.0,0.,12.0,0.,12.0
1979-07-28 07:11:04.700 ,1,0,0.,12.0,0.,12.0,0.,12.0,0.,12.0
1979-07-28 07:11:16.700 ,0,0,0.,12.0,0.,12.0,0.,12.0,0.,12.0
1979-07-28 07:11:28.700 ,0,0,0.,12.0,0.,12.0,0.,12.0,0.,12.0
1979-07-28 07:11:40.700 ,0,0,0.,12.0,0.,12.0,0.,12.0,0.,12.0
1979-07-28 07:11:52.700 ,0,0,0.,12.0,0.,12.0,0.,12.0,0.,12.0
1979-07-28 07:12:04.700 ,0,0,0.,12.0,0.,12.0,0.,12.0,0.,12.0
1979-07-28 07:12:16.700 ,0,0,0.,12.0,0.,12.0,0.,12.0,0.,12.0
1979-07-28 07:12:28.700 ,0,0,0.,12.0,0.,12.0,0.,12.0,0.,12.0
1979-07-28 07:12:40.700 ,0,0,0.,12.0,0.,12.0,0.,12.0,0.,12.0
1979-07-28 07:12:52.700 ,1,0,0.,12.0,0.,12.0,0.,12.0,0.,12.0
1979-07-28 07:13:04.700 ,1,0,0.,12.0,0.,12.0,0.,12.0,0.,12.0
1979-07-28 07:13:16.700 ,1,0,0.,12.0,0.,12.0,0.,12.0,0.,12.0
1979-07-28 07:13:28.700 ,1,0,0.,12.0,0.,12.0,0.,12.0,0.,12.0
1979-07-28 07:13:40.700 ,2,0,0.,12.0,0.,12.0,0.,12.0,0.,12.0
1979-07-28 07:13:52.700 ,2,0,0.,12.0,0.,12.0,0.,12.0,0.,12.0
1979-07-28 07:14:04.700 ,2,0,0.,12.0,0.,12.0,0.,12.0,0.,12.0
1979-07-28 07:14:16.700 ,2,0,0.,12.0,0.,12.0,0.,12.0,0.,12.0
1979-07-28 07:14:28.700 ,3,0,0.,12.0,0.,12.0,0.,12.0,0.,12.0
1979-07-28 07:14:40.700 ,3,0,0.,12.0,0.,12.0,0.,12.0,0.,12.0
1979-07-28 07:14:52.700 ,3,0,0.,12.0,0.,12.0,0.,12.0,0.,12.0
1979-07-28 07:15:04.700 ,3,0,0.,12.0,0.,12.0,0.,12.0,0.,12.0
1979-07-28 07:15:16.700 ,4,0,0.,12.0,0.,12.0,0.,12.0,0.,12.0
1979-07-28 07:15:28.700 ,4,0,0.,12.0,0.,12.0,0.,12.0,0.,12.0
1979-07-28 07:15:40.700 ,4,0,0.,12.0,0.,12.0,0.,12.0,0.,12.0
1979-07-28 07:15:52.700 ,4,0,0.,12.0,0.,12.0,0.,12.0,0.,12.0
1979-07-28 07:16:04.700 ,5,0,0.,12.0,0.,12.0,0.,12.0,0.,12.0
1979-07-28 07:16:16.700 ,5,0,0.,12.0,0.,12.0,0.,12.0,0.,12.0
1979-07-28 07:16:28.700 ,5,0,0.,12.0,0.,12.0,0.,12.0,0.,12.0
1979-07-28 07:16:40.700 ,5,0,0.,12.0,0.,12.0,0.,12.0,0.,12.0
1979-07-28 07:16:52.700 ,6,0,0.,12.0,0.,12.0,0.,12.0,0.,12.0
1979-07-28 07:17:04.700 ,6,0,0.,12.0,0.,12.0,0.,12.0,0.,12.0
1979-07-28 07:17:16.700 ,6,0,0.,12.0,0.,12.0,0.,12.0,0.,12.0